Regional Weather Roundup
Issued by NWS

Home | Current Version | Previous Version | Graphics & Text | Print | Product List | Glossary On
Versions: 1 2 3 4 5 6 7 8 9 10 11 12 13 14 15 16 17 18 19 20 21 22 23 24 25 26 27 28 29 30 31 32 33 34 35 36 37 38 39 40 41 42 43 44 45 46 47 48 49 50
000
ASUS43 KBIS 221120
RWRND

NORTH DAKOTA REGIONAL WEATHER ROUNDUP
NATIONAL WEATHER SERVICE BISMARCK ND
600 AM CDT FRI AUG 22 2014

NOTE: "FAIR" INDICATES FEW OR NO CLOUDS BELOW 12,000 FEET WITH NO
SIGNIFICANT WEATHER AND/OR OBSTRUCTIONS TO VISIBILITY.


NDZ001>003-009>011-017-221200-
NORTHWEST NORTH DAKOTA

CITY           SKY/WX    TMP DP  RH WIND       PRES   REMARKS
WILLISTON      CLOUDY    62  55  77 NE14      30.08R
MINOT          LGT RAIN  60  59  96 N8        30.05R FOG
MINOT AFB      LGT RAIN  61  61 100 N9        30.05R
$$

NDZ018>021-031>035-040>046-221200-
SOUTHWEST NORTH DAKOTA

CITY           SKY/WX    TMP DP  RH WIND       PRES   REMARKS
BISMARCK       LGT RAIN  65  65 100 NE5       30.01S FOG
DICKINSON      CLOUDY    63  62  97 CALM      30.03S FOG
GARRISON         N/A     64  63  96 NE6       30.03R
HETTINGER ARPT MOCLDY    59  57  93 W3        30.05R FOG
$$

NDZ004>008-012>016-024-026-027-054-221200-
NORTHEAST NORTH DAKOTA

CITY           SKY/WX    TMP DP  RH WIND       PRES   REMARKS
GRAND FORKS    CLOUDY    67  66  97 N7        29.93R
GRND FRKS AFB  CLOUDY    66  66 100 N8        29.96R
DEVILS LAKE    CLOUDY    64  57  77 N10       30.00R
$$

NDZ022-023-025-028>030-036>039-047>053-221200-
SOUTHEAST NORTH DAKOTA

CITY           SKY/WX    TMP DP  RH WIND       PRES   REMARKS
FARGO          FOG       66  65  96 N3        29.93R VSB 1/4
JAMESTOWN      CLOUDY    67  65  93 NW8       29.98R
$$




USA.gov is the U.S. government's official web portal to all federal, state and local government web resources and services.